Regional Weather Roundup
Issued by NWS

Home | Current Version | Previous Version | Graphics & Text | Print | Product List | Glossary On
Versions: 1 2 3 4 5 6 7 8 9 10 11 12 13 14 15 16 17 18 19 20 21 22 23 24 25 26 27 28 29 30 31 32 33 34 35 36 37 38 39 40 41 42 43 44 45 46 47 48 49 50
000
ASUS43 KLOT 042121
RWRIL

ILLINOIS REGIONAL WEATHER ROUNDUP
NATIONAL WEATHER SERVICE CHICAGO/ROMEOVILLE IL
400 PM CDT TUE AUG 04 2015

NOTE: "FAIR" INDICATES FEW OR NO CLOUDS BELOW 12,000 FEET WITH NO
SIGNIFICANT WEATHER AND/OR OBSTRUCTIONS TO VISIBILITY.

* THESE STATIONS ARE NOT UNDER NWS QUALITY CONTROL. THEY ALSO MAY NOT
  REPORT WEATHER SUCH AS PRECIPITATION OR FOG.

ILZ001-002-007-009-015-016-024-042200-
NORTHWEST ILLINOIS

CITY           SKY/WX    TMP DP  RH WIND       PRES   REMARKS
MOLINE         CLOUDY    82  59  45 N5        29.96F HX  82
STERLING*      CLOUDY    81  59  47 NW6       29.95F HX  81
SAVANNA*       PTSUNNY   82  53  37 NW8       29.97F HX  81
$$

ILZ003-004-008-010-011-017-018-042200-
NORTH CENTRAL ILLINOIS

CITY           SKY/WX    TMP DP  RH WIND       PRES   REMARKS
ROCKFORD       CLOUDY    82  50  32 NW12      29.99F HX  81
FREEPORT*      PTSUNNY   78  54  43 W8        29.99F
ROCHELLE*      CLOUDY    77  57  50 NW8       29.99F
DE KALB*       PTSUNNY   77  54  44 NW12G17   30.00F
PERU*          CLOUDY    78  56  47 NW8       29.99F
$$

ILZ005-006-012>014-019>023-042200-
NORTHEAST ILLINOIS

CITY           SKY/WX    TMP DP  RH WIND       PRES   REMARKS
CHICAGO-OHARE  PTSUNNY   80  53  39 NW15G21   29.96F HX  80
CHICAGO-MIDWAY PTSUNNY   82  52  35 NW16      29.96F HX  81
AURORA         PTSUNNY   79  57  46 W9        29.99F HX  80
LANSING*       MOSUNNY   80  52  37 W13       29.97S HX  80
JOLIET*        CLOUDY    81  57  43 NW3       29.97F HX  81
WAUKEGAN       PTSUNNY   76  56  49 VRB5      29.97S
DUPAGE AIRPORT PTSUNNY   78  52  40 W13       29.98S
KANKAKEE*      CLOUDY    79  56  45 NW10      30.00S HX  80
WHEELING       MOSUNNY   81  51  35 NW12      29.98S HX  80
MORRIS*        CLOUDY    79  57  46 W10       29.98S HX  80
ROMEOVILLE*    PTSUNNY   79  53  40 W10       29.98F
NORTHERLY ISL    N/A     78  56  46 SW1         N/A
$$

LMZ740>746-042200-
SOUTHERN LAKE MICHIGAN

STATION/POSITION SKY/WX   TEMP    WIND        PRES    VSBY  WAVE
                          AIR SEA DIR/SP/G                  HT/PER
                          (F)     (DEG/KT/KT) (MB)    (MI)  (FT/S)
HARRISON CRIB              75      80/  6/  7   N/A
BURNHAM HARBOR             76      70/ 10/ 14   N/A
CALUMET HARBOR             78      40/  4/  6   N/A
BURNS HARBOR               77      10/  6/  7 1015.2S
MICHIGAN CITY              76     350/  4/  5   N/A
MICHIGAN CITY 6N           76 77   30/  4/  4   N/A           1
ST. JOSEPH                 75 75  260/  6/  6   N/A           1
$$

ILZ025>027-034>036-040-047-049-050-058-095>099-042200-
WEST-CENTRAL ILLINOIS

CITY           SKY/WX    TMP DP  RH WIND       PRES   REMARKS
QUINCY         CLOUDY    77  59  53 E7        29.99F
GALESBURG*     CLOUDY    76  62  61 N8        29.96F
MACOMB*        CLOUDY    77  62  58 CALM      30.01F
JACKSONVILLE*  PTSUNNY   78  65  65 CALM      29.98F HX  80
PITTSFIELD*    PTSUNNY   79  65  63 SE6       30.00F HX  80
$$

ILZ028>032-037-038-041>044-048-051>054-059>061-042200-
CENTRAL ILLINOIS

CITY           SKY/WX    TMP DP  RH WIND       PRES   REMARKS
PONTIAC        CLOUDY    79  64  59 W9        30.00F HX  81
BLOOMINGTON    CLOUDY    80  61  52 VRB5      30.01F HX  81
DECATUR        CLOUDY    79  61  53 SW3       30.00F HX  80
PEORIA         CLOUDY    81  60  48 NW5       29.98F HX  82
LACON*         CLOUDY    78  60  54 NW6       29.98F
LINCOLN*       CLOUDY    81  59  47 S5        29.99F HX  81
SPRINGFIELD    CLOUDY    79  64  60 W3        30.00F HX  81
TAYLORVILLE    CLOUDY    73  68  83 CALM      30.00F
$$

ILZ033-039-045-046-055>057-062-063-042200-
EAST-CENTRAL ILLINOIS

CITY           SKY/WX    TMP DP  RH WIND       PRES   REMARKS
CHAMPAIGN      MOSUNNY   80  60  50 W5        30.02F HX  81
DANVILLE*      MOSUNNY   79  61  54 W8        29.98F HX  80
RANTOUL*       MOSUNNY   82  61  47 W9        30.00F HX  83
MATTOON        LGT RAIN  73  63  70 CALM      30.00F
PARIS*         CLOUDY    79  63  57 W8        30.03S HX  80
$$

ILZ079-100>102-042200-
SOUTHWEST ILLINOIS

CITY           SKY/WX    TMP DP  RH WIND       PRES   REMARKS
ALTON          PTSUNNY   81  70  69 N7        29.97F HX  84
BELLEVILLE     PTSUNNY   88  75  64 NE10      29.94F HX  97
CAHOKIA*       PTSUNNY   90  70  51 N14       29.95F HX  95
SPARTA*        PTSUNNY   87  74  66 N3        29.96S HX  95
$$

ILZ064>066-069>071-074>076-080>082-084>086-088>090-092>094-042200-
SOUTH-CENTRAL ILLINOIS

CITY           SKY/WX    TMP DP  RH WIND       PRES   REMARKS
CARBONDALE     PTSUNNY   91  73  55 W8        29.95F HX  99
CAIRO*         MOSUNNY   89  71  54 W8        29.94F HX  95
EFFINGHAM*     LGT RAIN  75  64  67 N6        30.01F
MARION         PTSUNNY   91  72  52 SW14      29.95F HX  98
MT. VERNON     CLOUDY    84  66  54 SW22      30.01R THUNDER HX  86
CENTRALIA*     PTSUNNY   85  68  55 N9        29.98R HX  89
SALEM*         MOSUNNY   86  70  57 N9        29.98S HX  91
METROPOLIS*    MOSUNNY   91  74  58 W3        29.95F HX 101
$$

ILZ067-068-072-073-078-083-087-091-042200-
SOUTHEAST ILLINOIS

CITY           SKY/WX    TMP DP  RH WIND       PRES   REMARKS
LAWRENCEVILLE  PTSUNNY   84  68  58 N8        29.98F HX  87
FLORA*         MOSUNNY   83  69  61 N13G18    29.99R HX  87
FAIRFIELD*     MOSUNNY   87  75  66 N6        29.94F HX  96
HARRISBURG*    PTSUNNY   83  66  56 NW5       29.96S HX  85
ROBINSON*      RAIN      77  67  71 N10G17    30.02R
CARMI*         MOSUNNY   85  72  63 N5        29.94R HX  91
$$

ABBREVIATIONS USED IN REMARKS
   TC - TEMPERATURE IN CELSIUS
  WCI - WIND CHILL INDEX
   HX - HEAT INDEX
  VSB - VISIBILITY
$$




USA.gov is the U.S. government's official web portal to all federal, state and local government web resources and services.